Location: ??????
(42.0089°N, 44.3281°E)
Time: 18:13:25
(UTC+00:00)

USA 267 - Pass Details

Date: 02 June 2022
Orbit: 1101 x 1106 km, 123.0° (Epoch: 28 June)

Event Time Altitude Azimuth Distance (km) Brightness Sun altitude
Rises 17:25:04 0° 51° (NE) 3,924 6.1 -8.7°
Reaches altitude 10° 17:27:55 10° 40° (NE) 2,965 5.6 -9.1°
Maximum altitude 17:33:15 28° 345° (NNW) 1,941 5.3 -9.9°
Drops below altitude 10° 17:38:36 10° 290° (WNW) 2,964 6.7 -10.6°
Sets 17:41:27 0° 279° (W) 3,921 7.2 -11.0°
